Location: Fish Springs
(37.0754°N, 118.2540°W)
Time: 08:26:51
(UTC+00:00)

X-37B - Pass Details

Date: 26 January 2022
Orbit: 329 x 342 km, 45.0° (Epoch: 18 May)

Event Time Altitude Azimuth Distance (km) Brightness Sun altitude
Rises 02:02:30 0° 216° (SW) 2,104 5.2 -10.6°
Reaches altitude 10° 02:04:41 10° 202° (SSW) 1,268 3.7 -11.0°
Maximum altitude 02:07:07 26° 143° (SE) 706 1.7 -11.5°
Enters shadow 02:08:22 19° 102° (ESE) 887 1.9 -11.7°
